Regional Weather Roundup
Issued by NWS Wakefield, VA

Home | Current Version | Previous Version | Text Only | Print | Product List | Glossary On
Versions: 1 2 3 4 5 6 7 8 9 10 11 12 13 14 15 16 17 18 19 20 21 22 23 24 25 26 27 28 29 30 31 32 33 34 35 36 37 38 39 40 41 42 43 44 45 46 47 48 49 50
000
ASUS41 KAKQ 210714
RWRAKQ

REGIONAL WEATHER ROUNDUP
NATIONAL WEATHER SERVICE WAKEFIELD VA
300 AM EDT TUE APR 21 2015

Note: "fair" indicates few or no clouds below 12,000 feet with no
significant weather and/or obstructions to visibility. * = Denotes
station may not report precipitation (e.g., rain,snow,etc.),
thunder or fog.

VAZ042-051-052>054-056-210800-
NORTHERN VIRGINIA

CITY           SKY/WX    TMP DP  RH WIND       PRES   REMARKS
WASH NATIONAL  CLOUDY    62  57  83 SW3       29.62R
DULLES         MOCLDY    57  55  93 SW3       29.62R
FORT BELVOIR   MOCLDY    59  57  94 CALM      29.62R
QUANTICO       LGT RAIN  63  55  75 CALM      29.62S
FREDERICKSBRG* CLOUDY    64  59  85 SW5       29.62R
STAFFORD*      CLOUDY    59  32  36 CALM      29.66S
WARRENTON      CLOUDY    59  57  92 CALM      29.63R
CULPEPER*      CLOUDY    61  55  82 NW3       29.63R
MANASSAS*      CLOUDY    59  59 100 CALM      29.63R
LEESBURG*      CLOUDY    61  54  77 NW17G29   29.63R
WINCHESTER     CLOUDY    59  37  44 W12       29.65R
FRONT ROYAL*   CLOUDY    55  46  71 NW7G17    29.65R
LURAY*         CLOUDY    61  46  59 SW5       29.67R
$$

VAZ048-049-060>072-079>083-210800-
CENTRAL AND SOUTH CENTRAL VIRGINIA

CITY           SKY/WX    TMP DP  RH WIND       PRES   REMARKS
RICHMOND       MOCLDY    67  58  72 SW14      29.64R
CHESTERFIELD*  NOT AVBL
PETERSBURG*    MOCLDY    66  60  81 SW10      29.67R
HANOVER        PTCLDY    65  57  75 SW7       29.65R
TAPPAHANNOCK*  PTCLDY    67  57  69 SW9G17    29.62R
QUINTON*       FAIR      66  61  84 MISG      29.64R
CHARLOTTSVILLE CLOUDY    60  49  66 VRB6      29.66R
GORDONSVILLE*  CLOUDY    60  51  72 SW6       29.64R
ORANGE*        CLOUDY    59  55  88 S3        29.65R
LOUISA*        CLOUDY    64  52  63 W8        29.63R
BUMPASS*       CLOUDY    63  53  69 CALM      29.64R
FARMVILLE*     CLOUDY    63  55  76 CALM      29.67R
CREWE*         PTSUNNY   63  56  79 W6        29.67S
FORT PICKETT*  FAIR      61  58  90 SW7       29.68R
CHASE CITY*    CLOUDY    64  58  83 W7        29.71R
CLARKSVILLE*   CLOUDY    61  55  82 W5        29.70R
SOUTH HILL*    CLOUDY    60  59  97 SW3       29.75R
LAWRENCEVILLE* CLOUDY    61  60  98 MISG      29.68S
EMPORIA*       LGT RAIN  61  59  94 S5        29.70R
$$

VAZ088>098-210800-
SOUTHEAST VIRGINIA

CITY           SKY/WX    TMP DP  RH WIND       PRES   REMARKS
NORFOLK        MOCLDY    68  61  78 SW16      29.66R
VIRGINIA BEACH CLOUDY    70  61  73 SW14      29.66S
NORFOLK NAVAL  MOCLDY    72  61  68 S13G23    29.66S
WEST POINT*    CLOUDY    70  60  70 SW14G20   29.64R
SALUDA*        FAIR      68  61  77 W8        29.61S
NEWPORT NEWS   LGT RAIN  72  62  71 W15G23    29.64F
LANGLEY AFB    MOCLDY    69  62  76 SW20G29   29.62F
FORT EUSTIS    DRIZZLE   68  66  94 SW9       29.63R
WILLIAMSBURG*  CLOUDY    72  63  73 W8G16     29.65R
HR EXEC AP*    PTSUNNY   68  61  77 S10       29.68S
FRANKLIN*      RAIN     N/A N/A N/A S9G17     29.67F
WAKEFIELD      LGT RAIN  66  63  90 S5        29.65R
$$

VAZ020-022-025-037-045-210800-
WEST CENTRAL AND SOUTHWEST VIRGINIA

CITY           SKY/WX    TMP DP  RH WIND       PRES   REMARKS
STAUNTON*      MOCLDY    56  39  54 W10G20    29.70S
WAYNESBORO*    FAIR      53  42  66 SW8       29.70R
HOT SPRINGS VA CLOUDY    42  41  95 W22G33    29.70S
LYNCHBURG      CLEAR     57  44  62 W8        29.73R
DANVILLE       MOCLDY    62  51  67 NW12      29.73R
SOUTH BOSTON*  CLOUDY    62  48  60 W10G20    29.72R
MARTINSVILLE   CLEAR     55  42  60 NW13G18   29.78R
ROANOKE        PTCLDY    54  40  59 W20G25    29.77R
BLACKSBURG     MOCLDY    48  40  73 W8G16     29.82S
DUBLIN*        PTCLDY    50  41  71 W10G20    29.82S
MARION*        CLOUDY    49  37  65 W10G17    29.84S
HILLSVILLE*    PTCLDY    45  39  78 W7        29.81S
RICHLANDS*     PTSUNNY   46  39  79 W10       29.84S
WISE*          CLOUDY    46  37  71 W5        29.87S
ABINGDON*      PTCLDY    49  44  82 W3        29.86S
$$

MDZ021>025-VAZ099-100-210800-
SOUTHERN MARYLAND AND THE DELMARVA PENINSULA

CITY           SKY/WX    TMP DP  RH WIND       PRES   REMARKS
PATUXENT RIVER PTCLDY    67  60  78 SW14      29.59R
BAY BRIDGE APT LGT RAIN N/A N/A N/A NW6       29.61S
LEONARDTOWN    PTCLDY    66  57  72 SW9       29.61R
DOVER          LGT RAIN  63  59  88 NW12      29.56R
GEORGETOWN     PTCLDY    69  60  73 SW15G28   29.59R
EASTON         CLOUDY    65  57  76 N7G16     29.64R
CAMBRIDGE      MOCLDY    70  59  68 SW9G16    29.59R
SALISBURY      PTCLDY    68  61  78 SW13G21   29.60R
OCEAN CITY     PTCLDY    63  60  90 SW8       29.60S
WALLOPS ISLAND MOCLDY    69  62  78 SW14G22   29.61F
ACCOMACK*      PTCLDY    68  59  73 SW15      29.62F
$$

NCZ012>017-030>032-210800-
NORTH CENTRAL AND EASTERN NORTH CAROLINA

CITY           SKY/WX    TMP DP  RH WIND       PRES   REMARKS
ROANOKE RAPIDS DRIZZLE   55  55 100 SW5       29.70R
RALEIGH        PTCLDY    63  61  93 W5        29.72R
ELIZABETH CITY CLOUDY    68  62  81 SW17G24   29.68F
AHOSKIE*       HVY RAIN  60  58  94 CALM      29.70R
EDENTON*       CLOUDY    68  62  81 SW8       29.71S
CURRITUCK*     CLOUDY    69  61  76 SW7       29.68F
KILL DEVIL HLS CLOUDY    69  63  82 SW7       29.68F
MANTEO         CLOUDY    68  64  85 SW13      29.70F
CAPE HATTERAS  CLOUDY    67  61  81 SW20G36   29.75R
TARBORO*       CLOUDY    69  63  80 SW8       29.70S
GOLDSBORO      MOCLDY    67  63  85 SW13      29.70R
WASHINGTON     CLEAR     66  62  86 S6        29.72S
GREENVILLE     MOCLDY    68  63  83 SW13      29.75R
NEW BERN       CLEAR     68  61  78 SW12      29.74R
WILMINGTON     CLEAR     68  59  73 SW14G22   29.77R
$$

VAZ048-210800-
ELSEWHERE

CITY           SKY/WX    TMP DP  RH WIND       PRES   REMARKS
HARRISBURG PA  CLOUDY    57  55  93 W5        29.57F
BALTIMORE      CLOUDY    58  57  97 CALM      29.60R
ANNAPOLIS      LGT RAIN  59  56  89 CALM      29.60S
ANDREWS AFB    MOCLDY    58  58  99 SW2       29.61S
PHILADELPHIA   LGT RAIN  61  57  87 CALM      29.59R
HENDERSON NC   MOCLDY    60  58  94 SW3       29.72R
GREENSBORO     MOCLDY    60  48  64 NW16      29.75R
ROCKY MOUNT    TSTM      63  59  87 W5        29.73R
$$

VAZ100-210800-
MARINE

STATION/POSITION TIME  TEMP    WIND        PRES    WAVE   SWELL
                       AIR SEA DIR/SP/G            HT/PER HT/PER
                 (UTC) (F)     (DEG/KT/KT) (MB)    (FT/S) (FT/S)
BRANDYWINE LGT   0600   59 50  180/ 12/ 13 1001.2F
CAPE MAY NJ      0600   55 55  160/  8/ 12 1000.8F
LEWES DE         0600   68 51  220/  8/ 11 1001.1F
15NM E FENWICK I 0650   53 47              1001.7F   7/ 9
OCEAN-CITY-INLET 0600   53 49  210/ 11/ 13 1002.0F
WACHAPREAGUE VA  0600   66 64  230/  5/  9 1003.3F
THOMAS POINT MD  0700   59 53  360/  4/  5 1003.3R
GOOSES REEF MD   0700   61 58  350/ 12/ 14   N/A     1/ 3
COVE POINT MD    0600   69     230/ 14/ 17 1001.4F
SOLOMONS ISLAND  0600      57                N/A
BISHOPS HEAD MD  0600   67 64  210/ 15/ 18 1001.5F
PINEY POINT MD   0600          240/ 14/ 18   N/A
CAMBRIDGE MD     0600   69 59  220/ 10/ 13 1001.4R
LEWISETTA VA     0600   69 64              1001.9F
RAPPAHANNOCK LGT 0600          200/ 14/ 15 1003.9R
STINGRAY PT      0700   65 57  220/ 10/ 16 1004.4F   1/ 2
YORK RVR RNG VA  0600   69     230/ 20/ 26 1002.7R
YORKTOWN VA      0600   70 60  220/ 10/ 16 1002.9S
DOMINION TERM VA 0600   68     230/ 14/ 16 1004.0S
KIPTOPEKE VA     0600      63  210/  9/ 11   N/A
CHES BAY BRIDGE  0600   68 53  200/ 19/ 23 1003.5R
CAPE HENRY VA    0600   69     190/  9/ 14 1003.0R
CHESAPEAKE LGHT  0600   63     210/ 24/ 25 1004.6R
WILLOUBY STN VA  0600   69     220/ 16/ 18 1004.5R
S CRANEY ISL VA  0600          210/  8/ 11 1004.1S
CAPE HENRY BUOY  0628      54                N/A     4/ 8   2/11
1ST LANDING BUOY 0700   64     220/ 16/ 21 1004.0S   2/ 3
OFFSHORE WE BUOY 0611      50                N/A     5/ 8   3/ 8
64NM E OF VA BCH 0650   62 57  200/ 16/ 17 1004.7F   7/ 8   5/ 8
DUCK PIER NC     0600   71 48  200/ 19/ 24 1004.4F
44056 DUCK FRF   0611      54                N/A     4/ 8   2/11
OREGON INLET NC  0600   67 67  190/ 18/ 20 1006.2F
HATTERAS NC      0600   70 69  200/  9/ 16 1006.1F
DIAMOND SHLS NC  0650   72 75  220/ 31/ 37 1006.6F   7/ 6   2/13
CAPE LOOKOUT NC  0700   69     210/ 13/ 17 1007.0F
$$



USA.gov is the U.S. government's official web portal to all federal, state and local government web resources and services.